Temperature
17 17 17 17 17 17 17 17 17 17 17 17 17 17 17 18 17 18 18 18 18 18 18 18 18 18 18 18 18 18 18 18 18 18 18 18 18 18 18 18 18 18 18
17 17 17 17 17 17 17 17 17 17 17 17 17 17 17 17 17 17 18 17 18 18 18 18 18 18 18 18 18 18 18 18 18 18 18 18 18 18 18 18 18 18 18
17 17 17 17 17 17 17 17 17 17 17 17 17 17 17 17 17 17 17 17 17 17 17 17 18 18 18 18 18 18 18 18 18 18 18 18 18 18 18 18 18 18 18
17 17 17 17 17 17 17 17 17 17 17 17 17 17 17 17 17 17 17 17 17 17 17 17 17 17 17 17 17 17 17 18 18 18 18 18 18 18 18 18 18 18 18
17 17 17 17 17 17 17 17 17 17 17 17 17 17 17 17 17 17 17 17 17 17 17 17 17 17 17 17 17 17 17 17 17 17 17 17 18 18 18 18 18 18 18
17 17 17 17 17 17 17 17 17 16 17 17 17 17 17 17 17 17 17 17 17 17 17 17 17 17 17 17 17 17 17 17 17 17 17 17 17 17 17 18 18 18 18
17 17 17 17 17 17 17 17 17 16 16 16 16 16 17 17 17 17 17 17 17 17 17 17 17 17 17 17 17 17 17 17 17 17 17 17 17 17 17 17 17 17 17
17 17 17 17 17 17 17 17 16 16 16 16 16 16 16 16 16 16 16 16 16 16 16 16 16 16 16 16 16 16 16 17 17 17 17 17 17 17 17 17 17 17 17
17 17 17 17 17 17 17 16 16 16 16 16 16 16 16 16 16 16 16 16 16 16 16 16 16 16 16 16 16 16 16 16 16 16 16 16 16 16 17 17 17 17 17
17 17 17 17 17 17 17 17 17 16 16 16 16 16 16 16 16 16 16 16 16 16 16 16 16 16 16 16 16 16 16 16 16 16 16 16 16 16 16 16 17 17 17
17 17 17 17 17 16 16 16 16 16 16 16 16 16 16 16 16 16 16 16 16 16 16 16 16 16 16 16 16 16 16 16 16 16 16 16 16 16 16 16 16 16 16
17 17 17 17 17 17 16 16 16 16 16 16 16 16 16 16 16 16 16 16 16 16 16 16 16 16 16 16 16 16 16 16 16 16 16 16 16 16 16 16 16 16 16
17 17 17 17 17 16 16 16 16 16 16 16 16 16 16 16 16 16 16 16 16 16 16 16 16 16 16 16 16 16 16 16 16 16 16 16 16 16 16 16 16 16 16
17 17 17 17 17 16 16 16 16 16 16 16 16 16 16 16 16 16 16 16 16 16 16 16 16 16 15 15 15 15 16 16 16 16 16 16 16 16 15 15 15 15 15
17 17 17 17 17 16 16 16 16 16 16 16 16 16 16 16 16 16 16 15 15 16 16 16 16 15 15 15 15 15 15 16 16 16 15 15 15 15 15 15 15 15 15
17 17 17 17 17 16 16 16 16 16 16 16 16 16 16 16 16 15 15 15 15 15 15 15 15 15 15 15 15 15 15 15 15 15 15 15 15 15 15 15 15 15 15
17 17 17 17 16 16 16 16 16 16 16 16 16 16 16 16 15 16 15 15 15 15 15 15 15 15 15 15 15 15 15 15 15 15 15 15 15 15 15 15 15 15 15
17 17 17 17 16 16 16 16 16 16 16 16 16 16 16 15 15 15 15 15 15 15 15 15 15 15 15 15 15 15 15 15 15 15 15 15 15 15 15 15 15 15 15
17 17 17 17 17 16 16 16 16 16 16 16 15 15 16 15 15 15 15 15 15 15 15 15 15 15 15 15 15 15 15 15 15 15 15 15 15 15 15 15 15 14 14
17 17 17 17 16 16 16 16 16 16 16 15 15 15 15 15 15 15 15 15 15 15 15 15 15 15 15 15 15 14 14 14 14 14 14 14 14 14 14 14 14 14 14
17 17 17 17 16 16 16 16 16 16 16 15 15 15 15 15 15 15 15 15 15 15 15 15 15 15 15 15 15 14 14 14 14 14 14 14 14 14 14 14 14 14 14
17 17 17 17 16 16 16 16 16 16 16 15 15 15 15 15 15 15 15 15 15 15 15 15 15 15 15 15 15 14 14 14 14 14 14 14 14 14 14 14 14 14 14
17 17 17 17 16 16 16 16 16 16 16 15 15 15 15 15 15 15 15 15 15 15 15 15 15 15 15 15 15 15 14 14 14 14 14 14 14 14 14 14 14 14 14
17 17 17 17 16 16 16 16 16 16 16 15 15 15 15 15 15 15 15 15 15 15 15 15 15 15 15 15 15 15 15 14 14 13 13 13 13 13 13 13 13 13 13
17 17 17 17 17 16 16 16 16 16 15 15 15 15 15 15 15 15 15 15 15 15 15 15 15 15 15 15 15 15 15 14 14 14 13 13 13 13 13 13 13 13 13
17 17 17 17 17 16 16 16 16 16 15 15 15 15 15 15 15 15 15 15 15 15 15 15 15 15 15 15 15 15 15 15 14 14 14 13 13 13 13 13 13 13 13
Wind_Speed
0 1 6 7 8 8 9 9 10 10 10 10 11 12 12 12 12 12 12 12 12 11 11 12 12 12 11 11 11 11 11 11 11 11 10 10 10 10 10 9 9 8 9
4 3 7 7 8 8 8 9 9 9 10 10 11 11 12 12 11 11 11 11 11 12 11 11 11 11 11 10 10 10 10 10 10 10 10 9 10 9 9 9 9 8 9
4 4 6 7 8 8 9 9 9 9 10 10 11 11 11 11 11 11 10 11 11 11 11 11 11 11 10 10 10 10 10 9 9 9 9 8 8 9 9 9 9 9 9
6 5 6 8 8 8 8 9 9 10 10 11 11 11 11 11 11 10 10 10 11 11 10 10 10 10 10 10 10 10 10 9 9 9 8 7 7 9 9 9 9 9 9
6 5 6 8 8 8 8 8 9 9 10 10 11 11 10 10 10 10 10 10 9 9 9 9 9 9 9 9 10 10 11 11 11 10 9 8 7 9 10 9 9 9 9
5 6 6 7 7 7 7 8 8 9 9 10 10 10 10 10 10 10 10 10 9 9 9 8 8 8 9 9 10 11 11 11 10 9 8 8 8 10 10 10 9 9 9
5 5 6 7 7 6 7 7 8 8 9 9 10 10 9 10 9 9 9 9 9 9 8 8 8 8 9 10 11 12 12 12 11 9 8 8 9 11 11 11 10 9 9
5 4 5 7 6 6 7 7 8 8 9 9 9 9 9 9 9 9 9 8 8 8 7 8 8 8 9 10 10 11 11 11 10 9 8 8 11 12 12 11 10 9 9
5 5 4 4 5 6 6 7 8 8 8 8 8 8 8 8 9 8 7 7 7 7 7 7 7 8 9 10 10 11 13 12 9 7 8 8 11 12 12 12 11 10 10
3 3 3 3 3 4 5 6 7 7 7 7 7 7 8 8 8 7 6 6 6 6 7 7 7 8 9 10 11 12 13 12 10 9 7 9 12 12 11 11 11 10 10
2 2 2 2 3 3 3 5 6 5 6 6 6 7 7 5 5 5 5 6 6 6 6 7 7 9 10 11 12 12 11 9 9 8 7 10 11 11 11 11 10 10 10
2 1 2 3 3 3 3 4 4 4 5 5 5 5 4 4 4 4 4 5 6 6 6 6 7 8 9 8 10 11 9 9 8 7 8 10 11 11 11 11 10 10 10
2 2 3 3 3 3 3 4 3 3 4 4 4 4 4 4 4 4 3 3 4 5 5 6 6 7 7 8 8 8 8 8 7 7 8 10 10 11 11 11 11 10 10
3 3 3 3 3 3 4 3 3 3 3 3 3 5 5 3 2 2 1 1 3 4 5 5 6 7 9 9 9 7 7 6 6 7 8 9 9 10 10 10 11 11 11
4 3 3 4 4 3 3 2 3 2 3 3 4 5 5 3 2 1 1 2 3 4 5 5 5 7 7 8 8 7 6 6 7 7 7 10 10 10 10 10 10 11 11
4 3 4 5 4 5 4 3 2 3 3 4 4 4 5 4 3 2 2 3 4 5 6 6 6 5 5 6 6 6 6 6 6 7 7 8 10 10 10 10 10 10 10
4 4 4 5 5 5 4 4 4 4 4 4 3 4 5 5 5 4 3 3 4 7 8 7 7 6 5 5 5 5 5 5 6 6 7 7 8 8 9 9 10 10 10
5 5 4 5 5 5 4 4 4 4 4 3 4 5 5 6 7 6 4 3 5 7 6 4 4 5 5 4 4 3 3 4 5 5 6 7 7 7 8 10 10 9 9
6 5 4 4 5 4 4 4 4 4 4 3 4 4 5 6 8 7 4 4 6 6 4 4 4 4 4 4 4 4 3 3 3 5 5 6 6 7 7 8 9 9 9
5 5 4 4 4 5 4 4 3 3 3 3 4 4 5 6 8 7 5 5 6 4 4 4 4 4 3 3 5 5 4 4 4 4 3 4 5 5 6 6 7 7 8
4 5 4 4 3 4 3 3 2 1 1 2 2 4 6 6 7 6 5 4 4 4 4 4 4 4 3 3 4 4 5 5 5 4 4 4 4 4 4 5 6 6 6
5 5 5 4 4 4 3 2 2 2 1 1 1 3 5 6 6 6 5 3 3 4 4 4 3 3 1 2 3 3 3 4 4 5 4 3 3 4 4 5 6 5 6
6 6 6 5 5 4 4 3 3 3 3 3 2 2 2 4 5 5 5 4 4 4 3 3 3 4 2 1 2 3 3 2 1 4 4 3 3 3 3 5 5 5 5
7 5 5 5 5 4 5 5 4 3 2 1 1 0 1 3 3 4 5 5 4 3 3 2 3 2 3 2 1 1 2 4 3 1 3 4 4 3 3 3 4 5 5
6 6 6 5 5 4 4 5 5 3 2 1 1 2 2 2 2 4 4 5 4 3 3 2 3 3 2 3 2 2 3 3 3 3 1 2 3 3 3 3 3 4 4
6 5 6 6 5 4 5 5 5 5 4 3 2 1 1 1 2 3 4 4 4 3 3 3 3 3 3 3 2 2 3 3 2 3 2 1 1 2 3 3 2 2 2
Wind_Direction
8 112 100 92 87 85 83 79 79 80 81 83 86 87 87 86 85 84 82 80 84 86 85 85 85 87 89 90 90 89 88 86 88 89 87 86 87 88 89 88 90 94 106
157 129 110 100 92 87 85 81 79 83 84 85 88 90 90 88 86 86 86 84 85 88 89 88 87 87 87 86 86 87 87 84 83 83 84 82 85 89 91 93 94 98 107
130 121 113 103 97 94 90 86 83 86 88 88 92 93 92 89 87 90 90 86 85 86 88 87 87 87 85 83 83 82 83 80 81 85 82 80 83 87 91 92 93 95 101
130 121 114 106 99 94 92 90 89 88 91 93 95 94 92 90 88 89 91 90 88 86 87 87 85 84 83 81 79 78 78 76 81 86 73 73 82 91 94 94 94 96 95
123 121 119 111 101 95 94 93 96 94 94 97 98 96 94 92 92 91 91 89 89 91 91 89 87 84 82 80 79 79 79 78 81 79 73 73 81 92 97 95 94 97 99
129 128 121 113 108 103 100 102 102 99 98 99 99 97 96 95 94 93 92 92 92 95 96 95 90 86 85 82 80 82 81 78 77 72 72 74 80 91 94 95 91 92 96
136 136 127 118 112 108 109 112 109 106 103 102 101 100 100 98 95 94 92 92 94 95 94 94 93 86 81 81 78 79 80 82 78 72 69 75 86 90 89 88 87 89 90
143 140 129 124 116 108 113 114 110 110 112 108 104 101 102 102 100 97 96 93 94 97 98 95 92 87 82 80 78 78 81 83 79 77 71 78 88 87 84 84 85 85 87
138 139 135 130 122 115 115 119 115 114 118 117 111 107 105 103 103 101 99 101 100 100 97 93 91 89 84 82 81 82 84 82 74 73 78 79 88 87 86 85 86 86 86
129 139 146 153 140 125 116 120 121 119 121 120 116 114 107 102 102 101 105 107 108 105 99 95 92 89 86 85 85 85 86 81 70 67 72 83 86 86 86 86 86 87 86
125 136 142 152 153 147 131 123 122 116 113 113 116 115 108 95 98 96 107 111 109 102 100 94 88 88 84 83 87 89 83 77 69 65 73 86 87 86 85 86 88 87 85
158 150 129 135 145 150 130 109 110 104 100 102 110 111 111 104 106 104 100 104 96 86 86 86 86 85 76 74 84 85 82 82 72 66 77 84 86 86 86 88 89 86 84
167 135 124 132 128 119 104 108 100 99 99 94 101 112 115 108 97 93 86 71 63 66 64 70 72 78 82 85 87 86 87 82 73 70 79 84 87 88 87 90 89 87 84
122 110 128 129 113 110 109 107 113 108 97 85 103 106 109 112 113 116 101 62 61 73 80 79 81 84 86 90 95 94 89 86 80 73 77 84 89 91 89 87 87 84 83
123 111 115 114 109 103 95 93 99 98 98 96 96 103 109 114 110 112 110 89 81 92 97 94 91 88 88 90 94 94 90 88 82 76 74 78 85 89 89 85 83 81 81
130 117 117 108 106 102 94 88 91 97 98 91 89 92 100 108 107 103 94 90 87 93 94 93 92 89 88 91 84 86 88 89 87 83 78 78 83 86 87 85 83 79 78
147 127 121 119 104 100 99 93 86 85 87 79 79 88 96 99 103 103 93 87 94 98 96 89 85 85 87 87 82 82 86 88 93 88 83 80 77 79 84 83 81 76 74
142 134 131 124 114 104 99 95 88 80 78 74 79 88 95 97 97 95 88 84 93 93 92 89 83 82 81 86 84 75 80 87 93 96 90 82 77 74 76 77 76 75 72
150 145 137 124 120 110 102 91 86 82 71 68 76 83 91 97 102 105 100 95 96 89 83 97 85 93 94 91 93 76 63 68 78 94 88 89 88 83 78 76 75 75 72
151 146 139 129 124 111 94 81 68 59 52 58 70 81 94 97 101 107 109 100 97 90 79 85 91 80 92 95 90 70 51 52 62 74 86 94 96 87 82 80 73 70 72
141 143 144 132 130 118 102 98 97 85 52 44 58 86 98 100 98 102 106 101 98 99 103 105 101 84 70 82 79 55 32 38 47 46 54 71 78 82 88 88 81 73 66
154 151 146 147 143 136 128 132 142 139 108 60 42 70 95 102 103 112 111 110 108 104 97 96 102 95 77 84 103 95 49 18 18 29 32 48 60 73 82 97 98 87 76
160 166 163 164 154 145 128 104 82 64 51 39 33 26 43 103 112 114 115 117 118 117 125 127 130 126 123 49 94 129 130 168 351 3 14 27 42 56 69 92 98 97 87
172 168 158 159 151 145 133 129 127 126 132 185 192 103 35 89 110 116 115 117 120 123 133 143 135 132 125 114 53 70 129 142 134 57 355 9 29 45 48 75 84 91 88
168 165 159 153 151 152 145 141 135 136 155 152 114 88 63 46 89 114 116 114 115 125 135 122 111 110 118 131 132 115 91 81 98 127 124 350 13 11 27 53 75 85 84
164 160 158 155 157 158 153 150 154 160 160 139 123 121 86 49 51 93 117 119 121 129 133 124 113 110 107 110 111 117 134 135 143 134 142 142 26 348 14 28 54 77 88
Height
1533 1532 1531 1530 1529 1528 1527 1526 1526 1525 1524 1524 1523 1523 1522 1522 1522 1522 1522 1523 1523 1523 1523 1523 1523 1524 1524 1524 1524 1524 1525 1525 1525 1526 1526 1526 1526 1527 1527 1527 1527 1527 1528
1532 1532 1531 1530 1530 1529 1528 1527 1526 1525 1525 1524 1524 1524 1523 1523 1523 1523 1524 1524 1524 1524 1524 1524 1524 1525 1525 1525 1525 1526 1526 1526 1526 1527 1527 1527 1527 1528 1528 1528 1528 1528 1528
1533 1532 1532 1531 1530 1529 1528 1527 1527 1526 1526 1525 1525 1525 1524 1524 1524 1524 1525 1525 1525 1525 1525 1525 1526 1526 1526 1527 1527 1527 1527 1527 1527 1528 1528 1528 1528 1528 1529 1529 1529 1529 1529
1533 1533 1532 1531 1530 1530 1529 1528 1527 1527 1526 1526 1526 1526 1526 1526 1525 1525 1525 1526 1526 1526 1526 1526 1527 1527 1527 1528 1528 1528 1528 1528 1528 1529 1529 1529 1529 1529 1529 1530 1530 1530 1530
1533 1533 1533 1532 1531 1530 1529 1529 1528 1528 1528 1527 1527 1527 1527 1527 1527 1526 1526 1526 1526 1527 1527 1527 1528 1528 1528 1528 1529 1529 1529 1529 1529 1529 1530 1530 1530 1530 1530 1530 1530 1531 1531
1534 1534 1533 1532 1532 1531 1530 1530 1529 1529 1529 1528 1528 1528 1528 1528 1528 1528 1527 1527 1527 1527 1528 1528 1529 1529 1529 1529 1529 1529 1530 1530 1530 1530 1531 1531 1531 1531 1531 1531 1531 1531 1531
1534 1534 1534 1533 1532 1532 1531 1531 1531 1530 1530 1530 1529 1529 1529 1529 1529 1529 1529 1529 1528 1528 1529 1529 1530 1530 1530 1530 1530 1530 1531 1531 1531 1531 1532 1532 1532 1532 1532 1532 1532 1532 1532
1535 1535 1535 1534 1534 1533 1532 1532 1532 1532 1531 1531 1531 1531 1530 1530 1530 1530 1530 1530 1530 1530 1530 1530 1531 1531 1531 1531 1532 1532 1532 1532 1532 1532 1533 1532 1533 1532 1532 1532 1532 1532 1532
1536 1535 1535 1535 1535 1534 1534 1533 1533 1533 1533 1532 1532 1532 1532 1532 1532 1531 1531 1531 1531 1531 1531 1531 1532 1532 1532 1533 1533 1533 1533 1533 1533 1533 1533 1533 1533 1533 1533 1533 1533 1533 1533
1537 1536 1536 1536 1536 1536 1535 1535 1535 1535 1534 1534 1534 1534 1533 1533 1533 1533 1533 1533 1533 1532 1533 1533 1533 1533 1534 1534 1534 1534 1534 1534 1534 1535 1535 1535 1534 1534 1534 1534 1533 1534 1534
1537 1537 1537 1537 1537 1537 1536 1536 1536 1536 1536 1536 1535 1535 1535 1535 1535 1535 1534 1534 1534 1534 1534 1534 1534 1535 1535 1535 1535 1535 1535 1535 1536 1536 1536 1536 1535 1535 1535 1534 1534 1534 1535
1538 1538 1538 1538 1538 1538 1537 1537 1537 1537 1537 1537 1537 1536 1536 1536 1536 1536 1536 1536 1536 1536 1536 1535 1536 1536 1536 1536 1536 1537 1536 1537 1537 1537 1537 1537 1537 1536 1535 1535 1535 1535 1535
1538 1538 1539 1539 1539 1539 1539 1539 1538 1538 1538 1538 1538 1538 1537 1537 1537 1537 1537 1538 1537 1537 1537 1537 1537 1537 1537 1537 1538 1538 1538 1538 1538 1538 1538 1538 1538 1537 1537 1536 1536 1536 1537
1539 1539 1539 1540 1540 1540 1540 1540 1540 1540 1539 1539 1539 1539 1539 1538 1538 1539 1539 1539 1539 1538 1538 1538 1538 1538 1538 1538 1539 1539 1539 1539 1539 1539 1539 1539 1539 1538 1538 1538 1538 1538 1538
1539 1540 1540 1540 1540 1540 1540 1540 1540 1540 1540 1540 1540 1540 1540 1539 1540 1540 1540 1540 1540 1540 1540 1540 1540 1540 1540 1540 1540 1540 1540 1540 1540 1540 1540 1540 1540 1540 1539 1539 1539 1539 1539
1540 1540 1540 1541 1541 1541 1541 1541 1541 1541 1541 1541 1541 1540 1540 1541 1541 1541 1541 1541 1541 1541 1541 1541 1541 1541 1541 1541 1541 1542 1542 1542 1542 1542 1542 1541 1541 1541 1540 1540 1540 1540 1540
1540 1541 1541 1541 1542 1542 1542 1542 1542 1542 1542 1542 1542 1542 1541 1542 1542 1542 1542 1542 1542 1542 1542 1542 1542 1542 1542 1543 1543 1543 1543 1543 1544 1544 1543 1543 1543 1542 1542 1541 1541 1541 1541
1540 1541 1541 1542 1542 1542 1542 1543 1543 1543 1543 1543 1542 1542 1542 1542 1542 1542 1543 1543 1543 1543 1543 1543 1543 1543 1544 1544 1544 1544 1545 1545 1545 1545 1545 1544 1544 1544 1543 1543 1542 1542 1542
1540 1541 1542 1542 1543 1543 1543 1543 1544 1544 1544 1544 1543 1543 1543 1543 1543 1543 1544 1544 1544 1544 1544 1544 1545 1545 1545 1545 1546 1546 1547 1547 1547 1546 1546 1546 1545 1545 1544 1544 1543 1543 1543
1540 1541 1542 1543 1543 1544 1544 1544 1545 1545 1544 1544 1544 1544 1544 1544 1544 1544 1544 1544 1545 1545 1545 1545 1546 1546 1547 1547 1547 1548 1548 1548 1548 1548 1547 1547 1546 1546 1545 1545 1544 1544 1544
1540 1541 1541 1542 1543 1544 1544 1545 1545 1545 1545 1545 1545 1545 1545 1545 1545 1545 1545 1545 1546 1546 1546 1547 1547 1547 1548 1548 1548 1549 1549 1549 1549 1549 1549 1548 1547 1546 1546 1545 1545 1545 1545
1539 1540 1541 1542 1543 1544 1544 1545 1545 1546 1546 1546 1546 1546 1546 1546 1546 1546 1546 1546 1547 1547 1547 1548 1548 1548 1549 1549 1549 1549 1550 1552 1551 1551 1550 1549 1548 1547 1546 1546 1546 1546 1546
1539 1540 1541 1542 1543 1544 1545 1545 1545 1546 1546 1546 1547 1547 1547 1547 1547 1547 1547 1547 1548 1548 1548 1548 1549 1549 1549 1550 1550 1550 1551 1551 1551 1552 1551 1550 1549 1548 1547 1547 1547 1547 1547
1538 1539 1540 1541 1543 1543 1544 1544 1545 1545 1546 1546 1547 1547 1547 1548 1548 1548 1548 1548 1548 1549 1549 1549 1549 1550 1550 1550 1550 1551 1551 1551 1551 1552 1553 1551 1550 1550 1549 1548 1548 1548 1548
1537 1539 1540 1541 1542 1543 1544 1544 1545 1545 1546 1546 1547 1547 1547 1548 1548 1548 1548 1549 1549 1549 1550 1550 1550 1550 1550 1550 1551 1551 1551 1552 1552 1552 1552 1552 1551 1551 1550 1550 1550 1549 1549
1537 1538 1539 1540 1541 1542 1543 1544 1544 1545 1545 1546 1547 1547 1547 1548 1548 1549 1549 1549 1550 1550 1550 1550 1550 1550 1551 1551 1551 1551 1551 1552 1552 1552 1552 1552 1552 1552 1552 1551 1551 1551 1550